Temperature
-0 -0 -0 -0 0 0 0 1 1 1 1 1 2 2 2 2 2 2 2 2 2 2 3 3 3 3 3 3 3 4 4 4 4 4 5 5 5 6 6 6 6 6 6
-1 -1 -1 -1 -0 -0 -0 -0 0 0 0 1 1 1 1 2 2 2 2 2 2 2 2 2 2 3 3 3 3 3 3 3 4 4 4 4 4 5 5 5 5 5 5
-1 -1 -1 -1 -1 -1 -1 -1 -0 -0 -0 -0 0 0 1 1 1 1 1 1 1 2 2 2 2 2 2 3 3 3 3 3 3 3 3 3 4 4 4 4 4 5 5
-2 -2 -2 -2 -1 -1 -1 -1 -1 -1 -1 -1 -1 -0 -0 0 0 0 0 1 1 1 1 2 2 2 2 2 2 2 3 3 3 3 3 3 3 3 3 4 4 4 4
-2 -2 -2 -2 -2 -2 -2 -2 -2 -2 -1 -1 -1 -1 -1 -1 -0 -0 -0 -0 0 1 1 1 1 2 2 2 2 2 2 2 2 2 2 2 2 3 3 3 3 4 4
-3 -3 -3 -3 -3 -3 -2 -2 -2 -2 -2 -2 -2 -1 -1 -1 -1 -1 -1 -1 -0 0 0 1 1 1 2 2 2 2 2 2 2 2 2 2 2 2 2 3 3 3 3
-3 -3 -3 -3 -3 -3 -3 -3 -3 -3 -3 -2 -2 -2 -2 -1 -1 -1 -1 -1 -1 -0 0 0 1 1 1 1 1 2 2 2 2 2 2 2 2 2 2 2 2 2 2
-4 -4 -4 -4 -3 -3 -3 -3 -3 -3 -3 -3 -3 -3 -2 -2 -2 -2 -1 -1 -1 -0 -0 0 0 0 1 1 1 1 1 1 2 2 2 2 2 2 2 2 2 2 2
-4 -4 -4 -4 -4 -4 -4 -4 -4 -4 -4 -4 -3 -3 -3 -3 -2 -2 -2 -2 -1 -1 -0 -0 -0 0 1 1 1 1 1 1 1 1 1 1 1 1 1 1 1 1 1
-5 -5 -5 -5 -4 -4 -4 -4 -4 -4 -4 -4 -4 -3 -3 -3 -2 -2 -2 -2 -1 -1 -1 -0 -0 0 0 0 0 0 0 1 1 1 1 0 0 0 1 0 0 0 0
-5 -5 -5 -5 -5 -5 -5 -5 -5 -5 -5 -5 -4 -4 -4 -3 -3 -2 -2 -2 -2 -1 -1 -1 -0 -0 0 0 -0 0 0 1 1 0 0 -0 -0 -0 -0 -0 -0 -0 -0
-5 -5 -5 -5 -5 -5 -5 -5 -5 -5 -5 -5 -5 -4 -4 -4 -3 -3 -3 -2 -2 -2 -1 -1 -1 -1 -0 -0 -0 -0 -0 -0 -0 -0 -0 -1 -1 -1 -1 -1 -1 -1 -1
-6 -6 -6 -6 -5 -6 -5 -5 -5 -5 -6 -5 -5 -5 -4 -4 -4 -3 -3 -3 -2 -2 -2 -1 -1 -1 -1 -1 -1 -1 -1 -1 -1 -1 -1 -1 -1 -1 -1 -1 -1 -1 -1
-6 -6 -6 -6 -6 -6 -6 -6 -6 -6 -6 -6 -5 -5 -5 -4 -4 -4 -3 -3 -3 -2 -2 -2 -1 -1 -1 -1 -1 -1 -1 -1 -1 -1 -1 -1 -1 -2 -2 -2 -2 -2 -2
-7 -7 -7 -6 -6 -6 -6 -6 -6 -6 -6 -6 -6 -5 -5 -5 -4 -4 -4 -4 -3 -3 -3 -2 -2 -2 -2 -2 -2 -2 -2 -2 -2 -2 -2 -2 -2 -2 -2 -2 -2 -2 -2
-8 -7 -7 -7 -7 -7 -7 -6 -6 -6 -6 -6 -6 -6 -5 -5 -5 -4 -4 -4 -3 -3 -3 -3 -3 -3 -3 -3 -3 -2 -2 -2 -2 -3 -3 -3 -2 -2 -2 -2 -2 -3 -3
-8 -8 -8 -8 -8 -7 -7 -7 -7 -6 -6 -6 -6 -6 -6 -5 -5 -5 -5 -4 -4 -4 -4 -4 -4 -4 -3 -3 -3 -3 -3 -3 -3 -3 -3 -3 -3 -3 -3 -3 -3 -3 -3
-8 -8 -8 -8 -8 -8 -8 -8 -8 -7 -7 -6 -6 -6 -6 -5 -5 -5 -5 -5 -5 -4 -4 -4 -4 -4 -4 -4 -4 -4 -4 -4 -4 -4 -4 -4 -4 -4 -3 -4 -4 -4 -4
-9 -9 -9 -9 -8 -8 -8 -8 -8 -8 -8 -7 -7 -6 -6 -6 -6 -6 -6 -5 -5 -5 -5 -5 -4 -4 -4 -4 -4 -4 -4 -4 -4 -4 -4 -4 -4 -4 -4 -4 -4 -4 -4
-9 -9 -9 -9 -9 -9 -9 -9 -9 -9 -8 -8 -8 -7 -7 -7 -7 -6 -6 -6 -6 -6 -6 -5 -5 -5 -5 -5 -5 -5 -5 -5 -5 -5 -5 -5 -5 -5 -5 -5 -5 -5 -5
-9 -9 -9 -9 -9 -9 -9 -9 -9 -9 -9 -9 -9 -8 -8 -8 -8 -7 -7 -7 -7 -7 -6 -6 -6 -6 -6 -6 -6 -6 -6 -5 -5 -5 -5 -5 -5 -5 -5 -5 -5 -5 -5
-10 -10 -10 -10 -10 -10 -10 -10 -10 -10 -9 -9 -9 -9 -9 -8 -8 -8 -8 -8 -7 -7 -7 -7 -7 -7 -7 -6 -6 -6 -6 -6 -6 -6 -6 -6 -6 -5 -5 -5 -5 -5 -5
-10 -10 -10 -10 -10 -10 -10 -10 -10 -10 -10 -10 -10 -9 -9 -9 -9 -9 -9 -8 -8 -8 -8 -8 -8 -7 -7 -7 -7 -7 -7 -6 -6 -6 -6 -6 -6 -6 -6 -6 -6 -6 -6
-11 -11 -11 -10 -10 -10 -10 -10 -10 -10 -10 -10 -10 -10 -10 -10 -10 -9 -9 -9 -9 -9 -8 -8 -8 -8 -8 -7 -7 -7 -7 -7 -7 -7 -6 -6 -6 -6 -6 -6 -6 -6 -6
-11 -11 -11 -11 -11 -11 -11 -11 -11 -11 -11 -10 -10 -10 -10 -10 -10 -10 -10 -9 -9 -9 -9 -9 -8 -8 -8 -8 -8 -7 -7 -7 -7 -7 -7 -7 -7 -6 -6 -6 -6 -6 -6
-11 -11 -11 -11 -11 -11 -11 -11 -11 -11 -11 -11 -11 -11 -11 -10 -10 -10 -10 -10 -10 -10 -9 -9 -9 -9 -9 -8 -8 -8 -8 -8 -8 -7 -7 -7 -7 -7 -7 -7 -7 -7 -7
Wind_Speed
6 6 6 5 6 7 6 7 7 7 7 7 7 7 7 8 8 8 8 8 9 8 8 9 9 8 7 6 6 7 7 7 8 6 5 5 5 5 4 5 5 6 6
5 6 6 5 5 6 7 7 8 8 7 8 8 8 8 8 8 9 9 9 10 10 10 10 10 8 9 8 7 8 8 8 8 8 6 5 7 6 5 4 4 5 6
5 5 5 5 5 6 7 7 7 7 8 8 8 8 9 9 9 9 10 10 10 10 11 11 11 10 11 9 9 8 8 7 7 7 7 5 5 5 5 4 5 4 5
5 5 5 5 6 7 7 7 7 7 8 8 9 9 9 9 10 10 10 10 10 11 11 11 11 12 12 12 10 10 8 8 8 7 6 6 5 5 5 5 5 5 5
5 5 5 5 6 6 7 7 7 7 8 8 8 9 9 9 9 10 10 10 10 11 11 11 11 12 13 12 10 10 9 9 8 8 7 6 6 6 6 5 6 5 5
5 5 5 6 6 6 7 7 7 8 8 8 8 9 10 9 10 12 11 11 11 12 11 11 11 12 13 14 14 14 13 11 11 10 8 9 9 8 7 6 6 5 5
5 5 6 6 6 7 7 7 7 8 8 9 9 9 10 11 12 12 12 11 12 12 12 11 10 10 12 12 12 13 14 15 14 12 11 12 10 9 8 9 8 8 7
6 6 6 6 7 7 7 7 8 7 8 9 9 10 10 11 11 12 12 11 11 12 12 12 12 12 11 12 11 12 12 13 13 12 12 11 10 8 9 8 8 6 5
6 6 6 7 7 8 8 8 8 8 8 9 9 9 10 11 11 11 11 9 9 11 11 12 13 13 13 13 12 12 12 10 10 12 12 11 10 11 9 6 6 6 5
7 7 7 7 8 8 9 8 8 8 9 9 9 9 10 11 11 11 11 8 9 9 9 10 13 14 14 14 13 12 12 11 9 8 9 9 10 10 12 10 8 8 5
7 7 7 7 8 8 8 8 8 8 8 8 9 9 9 11 11 11 11 8 8 8 8 8 8 11 14 15 14 12 12 10 9 9 8 7 7 7 8 8 8 7 7
7 7 7 7 7 7 7 7 7 7 7 8 7 8 7 7 8 9 11 11 10 9 8 8 7 9 11 13 12 11 11 9 7 7 7 7 7 7 6 7 7 7 6
7 8 7 7 6 6 6 6 6 6 6 6 6 6 6 5 6 9 10 11 10 8 7 8 8 8 8 8 10 10 9 7 7 7 8 8 7 6 5 5 5 5 4
8 8 7 6 6 6 5 5 5 5 5 5 6 6 6 6 6 5 6 6 6 6 5 5 5 5 5 6 6 7 6 6 7 7 6 6 5 5 6 5 5 5 4
8 8 7 7 6 6 5 5 6 6 6 7 6 6 6 6 7 8 6 5 5 5 4 3 3 3 4 4 4 4 5 5 6 6 5 5 5 5 5 5 5 4 5
7 7 6 6 6 5 5 6 6 7 10 11 10 9 7 9 9 9 9 8 7 5 4 4 4 4 4 4 3 3 4 5 5 5 5 6 6 5 5 4 5 5 5
7 7 6 6 6 6 6 5 6 7 8 9 9 10 9 9 9 8 7 5 4 3 3 3 4 4 4 3 3 3 3 3 4 5 5 5 5 5 5 5 5 5 5
7 7 7 6 6 6 6 5 5 5 6 6 7 8 9 8 7 6 4 2 2 2 2 2 3 3 3 3 3 3 3 3 3 4 4 5 5 5 5 5 5 5 5
7 6 6 6 6 6 6 5 5 5 5 5 5 5 7 7 5 4 3 1 1 2 2 2 2 1 2 2 2 2 3 3 3 3 4 4 4 4 5 5 5 6 5
6 8 7 6 6 6 5 5 5 5 4 4 4 5 5 5 4 4 4 3 2 2 2 2 2 1 1 2 2 2 2 3 3 4 3 4 4 4 5 5 5 5 5
6 6 8 6 5 5 5 5 5 5 4 4 4 5 7 4 4 4 4 4 3 3 2 2 2 2 2 1 1 2 3 3 3 3 3 3 3 4 4 4 5 5 5
5 5 5 5 5 5 5 5 5 4 5 5 5 5 7 5 4 4 4 4 4 3 3 3 3 3 3 2 2 2 2 3 3 3 3 3 4 4 4 4 4 5 5
4 5 5 5 4 6 5 5 5 5 5 5 5 5 5 4 4 4 4 4 4 4 3 3 3 3 3 3 2 2 2 3 3 3 3 4 4 4 4 5 5 6 5
4 5 5 5 4 4 4 5 5 5 5 5 5 5 5 5 5 5 5 4 4 4 4 3 3 4 4 4 2 2 3 3 3 4 5 4 4 4 4 5 5 6 6
4 4 4 4 4 4 4 4 4 5 5 5 5 5 5 5 5 5 5 5 5 5 5 5 4 4 4 4 4 3 4 4 4 3 4 4 4 4 4 5 4 5 4
4 4 4 3 4 4 4 4 4 5 4 4 4 5 5 5 5 5 5 5 4 4 5 4 5 5 6 5 4 4 4 4 4 3 3 3 3 3 4 4 4 4 5
Wind_Direction
281 276 268 264 258 252 249 253 256 257 256 256 257 258 257 255 254 247 239 237 234 236 232 228 231 233 231 227 228 231 234 235 237 239 236 227 223 223 222 224 225 223 219
282 278 274 273 268 262 256 256 259 259 258 257 256 256 256 255 252 250 245 240 234 235 232 230 231 230 229 228 226 229 230 232 233 231 232 227 229 224 224 228 233 231 226
282 277 277 280 274 269 268 263 260 260 259 258 256 255 255 254 251 251 249 246 239 237 232 230 229 228 229 227 226 230 231 231 229 222 228 229 233 222 226 237 239 243 236
282 275 277 281 276 274 273 270 263 259 257 257 257 256 254 254 251 251 252 251 247 243 237 233 230 228 229 226 225 227 229 228 222 217 220 222 226 224 223 230 238 245 243
279 276 277 281 280 276 277 274 269 262 261 260 259 258 256 254 249 249 253 255 253 247 240 236 233 230 232 227 225 223 223 226 219 216 219 222 221 214 221 227 234 241 244
274 279 281 281 280 275 277 276 273 268 264 263 259 258 257 254 254 256 256 255 256 248 241 238 235 230 230 228 228 226 224 224 218 217 223 222 225 224 223 222 227 233 241
278 279 281 281 281 280 278 276 273 272 266 262 260 257 257 258 257 258 260 258 258 249 241 237 235 231 227 226 227 228 230 231 227 223 222 226 225 220 219 222 226 231 242
277 279 279 280 282 283 279 274 273 273 268 262 260 259 260 260 259 260 263 258 259 254 244 238 236 235 228 225 227 229 232 232 229 229 229 231 230 224 220 225 228 238 249
278 280 282 282 282 281 278 274 274 272 270 266 263 260 261 263 261 263 265 259 256 256 249 241 236 235 228 224 227 229 231 233 231 227 231 231 226 221 214 217 218 223 242
286 285 284 280 277 276 276 275 273 270 269 269 265 262 260 262 262 262 262 257 257 257 252 243 236 234 228 221 223 223 227 229 223 219 222 222 223 219 215 217 217 221 232
294 289 286 283 280 277 277 274 272 272 271 268 268 267 263 262 262 260 261 255 255 256 254 249 241 231 227 225 226 227 228 226 220 213 214 215 215 215 218 220 222 223 223
303 296 291 289 287 283 281 278 274 271 270 268 268 272 270 266 263 263 265 264 264 257 258 256 250 235 226 223 225 227 221 217 216 207 207 209 209 212 214 215 216 226 231
309 304 301 299 295 290 284 281 279 273 270 270 267 270 274 274 273 272 271 271 268 264 262 262 257 238 226 223 219 215 213 214 213 210 210 213 213 209 204 205 210 217 229
313 311 310 307 303 301 292 283 278 276 274 278 274 271 276 278 276 275 270 268 265 264 267 259 251 233 228 224 217 216 220 216 214 213 209 207 204 203 203 203 209 205 222
318 316 316 313 306 304 299 290 284 281 276 278 280 276 273 274 278 287 284 268 261 256 261 255 236 223 223 227 224 219 216 209 209 208 205 202 204 205 205 203 204 209 223
320 321 318 315 313 310 308 306 300 293 299 295 291 289 285 284 290 290 290 288 281 261 247 233 228 228 227 222 219 219 216 212 209 204 205 206 206 207 208 206 205 212 220
317 316 316 318 316 314 311 308 309 315 314 307 304 303 299 301 299 296 298 298 287 258 233 231 227 228 226 222 220 220 223 219 207 205 207 207 205 206 206 206 208 212 219
315 313 316 314 314 312 311 309 306 309 313 311 314 313 312 311 305 305 315 326 292 276 258 242 234 231 228 225 222 222 217 208 205 207 204 205 203 203 205 209 212 216 218
316 317 317 316 314 313 315 314 312 310 308 314 319 326 334 334 337 339 345 320 303 306 309 288 265 249 240 236 228 220 215 212 208 206 208 208 208 205 207 210 214 216 222
314 318 323 319 319 320 322 323 322 320 322 329 334 338 343 349 357 353 350 347 339 331 329 318 309 294 268 245 237 226 218 216 210 206 208 207 207 208 209 212 216 219 226
319 322 326 325 325 324 325 325 325 326 329 335 336 339 346 349 347 348 349 347 343 337 333 327 325 320 302 271 244 231 230 228 222 213 212 212 208 210 214 216 220 221 222
321 323 325 325 326 327 328 328 329 333 339 340 340 340 348 353 350 348 345 344 341 339 339 334 329 325 318 305 272 246 237 235 230 221 220 220 217 218 216 217 219 220 218
323 324 324 324 324 327 330 333 336 339 340 340 342 345 349 350 346 341 339 340 340 341 339 334 329 327 319 306 289 265 248 245 243 229 222 225 225 223 220 222 223 224 226
323 323 325 326 327 331 334 336 338 339 339 340 342 344 344 344 342 341 340 339 340 339 334 329 326 326 327 319 300 286 272 264 250 234 225 224 228 230 226 226 229 228 227
321 322 323 325 329 331 332 333 335 336 338 339 338 338 339 339 339 338 338 339 338 337 337 331 325 328 329 324 312 298 302 299 281 252 230 224 227 230 229 230 232 230 228
326 325 325 325 326 327 328 329 330 331 331 332 332 333 333 334 334 335 336 336 336 332 331 328 331 329 325 319 314 305 301 297 295 286 255 236 237 236 233 234 233 230 226
Height
1474 1474 1473 1473 1473 1474 1474 1474 1474 1474 1474 1473 1473 1473 1474 1474 1475 1476 1476 1477 1478 1479 1480 1481 1482 1484 1485 1486 1488 1489 1491 1492 1491 1492 1494 1495 1497 1498 1500 1501 1502 1503 1504
1470 1469 1469 1469 1468 1469 1468 1468 1468 1468 1468 1468 1468 1468 1468 1468 1469 1470 1471 1471 1472 1473 1474 1475 1476 1478 1479 1480 1482 1483 1484 1486 1487 1486 1488 1490 1491 1493 1494 1496 1497 1498 1499
1465 1465 1464 1464 1464 1464 1463 1463 1463 1462 1462 1462 1462 1462 1462 1463 1463 1464 1465 1465 1466 1467 1468 1469 1470 1471 1472 1474 1475 1477 1478 1479 1481 1481 1482 1484 1486 1487 1489 1490 1491 1492 1494
1461 1460 1459 1459 1459 1459 1458 1458 1457 1457 1457 1456 1456 1456 1456 1457 1457 1458 1458 1459 1459 1460 1461 1462 1463 1464 1466 1467 1468 1470 1471 1473 1475 1475 1476 1478 1480 1481 1483 1484 1485 1487 1488
1456 1456 1455 1455 1455 1454 1453 1452 1452 1451 1451 1450 1450 1450 1450 1450 1451 1451 1452 1452 1453 1453 1454 1454 1456 1457 1459 1460 1461 1463 1465 1466 1468 1469 1470 1472 1473 1474 1476 1478 1479 1481 1482
1452 1451 1451 1450 1450 1449 1448 1447 1446 1445 1445 1444 1444 1444 1443 1444 1444 1445 1446 1446 1446 1446 1447 1447 1449 1450 1451 1453 1454 1456 1458 1459 1461 1462 1463 1465 1466 1469 1471 1472 1474 1475 1475
1448 1447 1447 1446 1445 1444 1442 1441 1440 1439 1439 1438 1438 1438 1437 1437 1437 1438 1439 1439 1439 1439 1440 1441 1442 1442 1444 1445 1447 1448 1450 1452 1454 1456 1457 1458 1461 1462 1465 1467 1468 1469 1470
1445 1443 1442 1441 1440 1438 1437 1436 1435 1434 1433 1432 1432 1431 1430 1430 1431 1431 1431 1432 1432 1432 1432 1433 1434 1435 1436 1438 1439 1440 1442 1444 1446 1448 1450 1453 1456 1458 1460 1461 1462 1464 1464
1440 1439 1438 1436 1434 1433 1432 1431 1429 1428 1427 1426 1426 1425 1424 1424 1424 1424 1425 1425 1425 1424 1425 1426 1427 1428 1429 1431 1432 1433 1435 1436 1439 1441 1444 1446 1449 1451 1453 1455 1456 1457 1457
1436 1435 1433 1432 1430 1428 1427 1425 1424 1423 1421 1421 1420 1419 1418 1418 1418 1418 1419 1419 1418 1418 1418 1418 1419 1420 1421 1423 1425 1426 1427 1429 1432 1434 1436 1439 1442 1444 1446 1448 1449 1451 1452
1433 1431 1429 1427 1425 1423 1421 1420 1418 1417 1416 1415 1414 1413 1413 1412 1412 1412 1413 1413 1412 1412 1411 1411 1411 1412 1413 1415 1417 1419 1420 1423 1425 1427 1429 1431 1434 1436 1438 1440 1442 1444 1445
1428 1426 1424 1422 1420 1418 1416 1414 1413 1412 1411 1409 1408 1407 1407 1407 1406 1406 1407 1407 1406 1406 1405 1405 1404 1405 1407 1409 1411 1412 1414 1417 1418 1420 1422 1423 1425 1428 1430 1433 1435 1437 1439
1424 1422 1420 1418 1416 1414 1412 1410 1408 1407 1406 1405 1404 1402 1401 1401 1401 1401 1401 1400 1400 1400 1399 1399 1399 1399 1400 1402 1404 1406 1408 1410 1411 1413 1415 1417 1419 1422 1425 1427 1429 1432 1433
1421 1419 1416 1414 1412 1410 1408 1406 1405 1403 1402 1401 1399 1398 1397 1396 1396 1395 1395 1394 1394 1394 1393 1393 1393 1394 1395 1396 1398 1400 1402 1403 1405 1407 1409 1411 1414 1416 1418 1420 1423 1425 1426
1418 1416 1413 1411 1408 1406 1404 1403 1401 1400 1399 1397 1396 1395 1393 1392 1391 1391 1390 1390 1389 1388 1388 1388 1388 1389 1389 1390 1392 1393 1395 1397 1399 1401 1403 1405 1408 1410 1412 1414 1416 1418 1420
1416 1414 1411 1408 1406 1403 1401 1399 1397 1396 1394 1393 1392 1391 1389 1388 1387 1386 1385 1384 1384 1383 1383 1383 1383 1384 1384 1385 1386 1387 1389 1391 1393 1396 1398 1400 1403 1405 1406 1409 1410 1413 1414
1415 1413 1409 1406 1404 1401 1398 1396 1393 1392 1391 1389 1388 1386 1385 1384 1382 1381 1380 1379 1378 1378 1378 1378 1379 1379 1380 1380 1382 1383 1384 1386 1388 1391 1393 1395 1397 1399 1401 1403 1405 1407 1408
1414 1411 1407 1405 1402 1400 1397 1394 1392 1390 1387 1385 1384 1382 1381 1379 1378 1377 1376 1374 1374 1374 1374 1374 1375 1375 1376 1377 1378 1379 1380 1382 1384 1386 1388 1390 1392 1394 1396 1398 1399 1401 1403
1412 1409 1406 1403 1401 1398 1395 1393 1390 1388 1385 1383 1380 1379 1377 1375 1375 1374 1373 1372 1371 1370 1370 1371 1372 1372 1373 1374 1375 1376 1377 1378 1380 1381 1383 1385 1387 1389 1391 1392 1394 1396 1398
1411 1408 1405 1402 1399 1397 1394 1391 1389 1386 1384 1381 1379 1377 1375 1373 1372 1371 1370 1370 1369 1369 1369 1369 1369 1370 1370 1371 1372 1372 1373 1375 1376 1378 1379 1381 1383 1384 1386 1387 1389 1391 1392
1409 1406 1404 1401 1398 1396 1393 1390 1388 1386 1383 1381 1379 1377 1375 1373 1371 1370 1369 1369 1368 1367 1367 1367 1367 1367 1367 1368 1368 1369 1370 1371 1372 1374 1375 1377 1378 1380 1381 1383 1384 1386 1387
1408 1405 1402 1400 1397 1395 1393 1390 1388 1385 1383 1380 1378 1376 1374 1372 1371 1369 1369 1368 1367 1366 1366 1365 1365 1365 1365 1365 1365 1366 1366 1367 1369 1370 1372 1373 1375 1376 1377 1379 1380 1382 1383
1406 1404 1401 1399 1397 1395 1392 1390 1387 1385 1382 1380 1378 1376 1374 1372 1371 1370 1368 1367 1366 1364 1364 1363 1363 1363 1362 1362 1363 1363 1364 1365 1366 1368 1369 1370 1371 1372 1374 1375 1376 1377 1378
1405 1402 1400 1398 1396 1394 1392 1389 1387 1385 1383 1380 1378 1376 1375 1373 1371 1370 1368 1367 1365 1364 1363 1362 1362 1361 1360 1360 1360 1361 1362 1363 1364 1365 1366 1367 1368 1369 1369 1370 1371 1372 1373
1403 1401 1399 1397 1395 1393 1391 1389 1387 1385 1383 1381 1379 1377 1376 1374 1372 1370 1368 1367 1365 1363 1362 1361 1360 1359 1359 1359 1359 1359 1359 1360 1361 1362 1362 1363 1364 1365 1365 1366 1367 1367 1368
1402 1400 1398 1396 1394 1392 1390 1388 1386 1385 1383 1381 1380 1378 1376 1374 1372 1370 1369 1367 1365 1363 1362 1361 1359 1359 1358 1357 1357 1357 1357 1358 1359 1359 1360 1360 1361 1361 1361 1362 1362 1363 1364